Location: Izdebno
(52.6670°N, 16.2170°E)
Time: 07:19:08
(UTC+02:00)

Vanguard 1 - Pass Details

Date: 28 February 2024
Orbit: 653 x 3825 km, 34.2° (Epoch: 22 April)

Event Time Altitude Azimuth Distance (km) Brightness Sun altitude
Rises 21:24:44 0° 252° (WSW) 5,780 14.4 -34.4°
Reaches altitude 10° 21:28:15 10° 246° (WSW) 5,145 14.0 -34.8°
Maximum altitude 21:43:07 42° 182° (S) 4,248 12.8 -36.5°
Enters shadow 21:44:20 42° 175° (S) 4,322 12.8 -36.6°
